Weather in Somino

Russia / Saint-Petersburg and Leningrad Oblast     59°20′41″N   34°51′47″E
temp.,
°C
wind,
m/s
gust,
m/s
humid.,
%
clouds,
%
prec.,
mm/h
press.,
hPa
HPBL,
m
16 may, sun
sun1600:00+12ssw2595100 0.4 1004101
03:00+11ssw289859 0.4 1004178
06:00+12ssw289617 0.0 1004292
09:00+16sw468281 0.0 1005782
12:00+16sw4777100 0.3 10071118
15:00+16wsw478087 1.0 10081009
18:00+17wsw367710 0.2 1009756
21:00+13wsw229463 0.3 101043
17 may, mon
mon1700:00+13wsw2492100 0.1 1012117
03:00+11wnw11975 0.1 101312
06:00+12se11930 0.0 101550
09:00+18ese11679 0.0 1015544
12:00+21sse3450100 0.0 10141435
15:00+22se3545100 0.0 10131922
18:00+22ese475299 0.0 1012986
21:00+17ese31076100 0.0 1013327
18 may, tue
tue1800:00+15ese4138293 0.0 1012340
03:00+14ese41293100 0.2 1011392
06:00+14ese4129393 0.0 1009398
09:00+20ese6136511 0.0 1008679
12:00+26se61443100 0.0 10071534
15:00+27se6144399 0.0 10062146
18:00+25sse51248100 0.0 10061787
21:00+21sse51458100 0.0 10061053
19 may, wed
wed1900:00+17se31078100 0.0 1007333
03:00+15ese268795 0.0 1007138
06:00+16ese39846 0.0 1006285
09:00+22se486122 0.0 1006738
12:00+26sse617445 0.0 10062594
15:00+28s6163566 0.0 10063567
18:00+26sse516434 0.0 10043374
21:00+15sw310936 1.9 1007336
20 may, thu
thu2000:00+14ese369790 0.6 1007130
03:00+14sse31092100 0.9 1005288
06:00+14ese31191100 0.1 1005469
09:00+18sse577474 0.1 1004938
12:00+21sse585682 0.1 10031614
15:00+15s51193100 2.6 1003681
18:00+17sse510775 0.4 10021119
21:00+14s411886 0.7 1002683